Bilbao, Spain

8:54 AM CEST on August 21, 2017 (GMT +0200)
Bilbao

Weather History for LEBB - December, 2012

Change the Weather History Date:

Monday, December 31, 2012

  Actual Average Record
Temperature  
Mean Temperature 51 °F -  
Max Temperature 60 °F 54 °F 68 °F (2006)
Min Temperature 42 °F 40 °F 28 °F (2014)
Degree Days  
Heating Degree Days 14    
Growing Degree Days 1 (Base 50)    
Moisture  
Dew Point 38 °F    
Average Humidity 60    
Maximum Humidity 76    
Minimum Humidity 45    
Precipitation  
Precipitation 0.00 in - - ()
Sea Level Pressure  
Sea Level Pressure 30.06 in    
Wind  
Wind Speed 7 mph ()    
Max Wind Speed 18 mph    
Max Gust Speed 37 mph    
Visibility 6.2 miles    
Events Rain    
Averages and records for this station are not official NWS values.
T = Trace of Precipitation, MM = Missing Value Source: Averaged Metar Reports

Daily Weather History Graph

Daily Weather History Graph

Search for Another Location

Airport or City:

Trip Planner

Search our weather history database for the weather conditions in past years. The results will help you decide how hot, cold, wet, or windy it might be!

Date:

Astronomy

Dec. 31, 2012 Rise Set
Actual Time 8:44 AM CET 5:45 PM CET
Civil Twilight 8:11 AM CET 6:18 PM CET
Nautical Twilight 7:35 AM CET 6:54 PM CET
Astronomical Twilight 7:00 AM CET 7:29 PM CET
Moon 9:08 PM CET (12/31) 10:12 AM CET (12/31)
Length of Visible Light 10h 06m
Length of Day
9h 01m
Waning Gibbous, 92% of the Moon is Illuminated
Dec 31
Waning Gibbous
Jan 5
Last Quarter
Jan 11
New
Jan 19
First Quarter
Jan 27
Full

Hourly Weather History & Observations

Time (CET) Temp. Windchill Dew Point Humidity Pressure Visibility Wind Dir Wind Speed Gust Speed Precip Events Conditions
5:00 AM 42.8 °F 40.1 °F 35.6 °F 76% 30.27 in - East 4.6 mph - N/A   Clear
5:30 AM 42.8 °F 41.1 °F 35.6 °F 76% 30.24 in - East 3.5 mph - N/A   Clear
6:00 AM 42.8 °F - 35.6 °F 76% 30.24 in - Variable 2.3 mph - N/A   Clear
6:30 AM 42.8 °F - 35.6 °F 76% 30.24 in - Variable 2.3 mph - N/A   Clear
7:00 AM 44.6 °F 41.4 °F 35.6 °F 71% 30.21 in - ENE 5.8 mph - N/A   Clear
7:30 AM 44.6 °F - 35.6 °F 71% 30.21 in - Variable 1.2 mph - N/A   Clear
8:00 AM 44.6 °F 42.2 °F 35.6 °F 71% 30.21 in - South 4.6 mph - N/A   Clear
8:30 AM 46.4 °F 43.5 °F 35.6 °F 66% 30.18 in - SSW 5.8 mph - N/A   Clear
9:00 AM 46.4 °F 42.4 °F 35.6 °F 66% 30.18 in 6.2 mi SSE 8.1 mph - N/A   Partly Cloudy
9:30 AM 46.4 °F 43.5 °F 35.6 °F 66% 30.15 in 6.2 mi SE 5.8 mph - N/A   Partly Cloudy
10:00 AM 48.2 °F - 37.4 °F 66% 30.15 in 6.2 mi SE 8.1 mph - N/A   Partly Cloudy
10:30 AM 50.0 °F - 37.4 °F 62% 30.15 in 6.2 mi Variable 1.2 mph - N/A   Partly Cloudy
11:00 AM 55.4 °F - 37.4 °F 51% 30.12 in 6.2 mi South 9.2 mph - N/A   Partly Cloudy
11:30 AM 57.2 °F - 39.2 °F 51% 30.12 in 6.2 mi SSW 11.5 mph - N/A   Partly Cloudy
12:00 PM 57.2 °F - 37.4 °F 48% 30.12 in 6.2 mi SW 10.4 mph - N/A   Partly Cloudy
12:30 PM 57.2 °F - 37.4 °F 48% 30.09 in 6.2 mi WSW 12.7 mph 28.8 mph N/A   Partly Cloudy
1:00 PM 57.2 °F - 37.4 °F 48% 30.06 in 6.2 mi SW 18.4 mph 31.1 mph N/A   Partly Cloudy
1:30 PM 57.2 °F - 37.4 °F 48% 30.04 in 6.2 mi SW 12.7 mph 27.6 mph N/A   Partly Cloudy
2:00 PM 59.0 °F - 37.4 °F 45% 30.01 in 6.2 mi WSW 16.1 mph 27.6 mph N/A   Partly Cloudy
2:30 PM 60.8 °F - 39.2 °F 45% 30.01 in 6.2 mi SW 17.3 mph 36.8 mph N/A   Partly Cloudy
3:00 PM 59.0 °F - 37.4 °F 45% 29.98 in 6.2 mi SW 16.1 mph - N/A   Partly Cloudy
3:30 PM 59.0 °F - 39.2 °F 48% 29.98 in 6.2 mi SW 13.8 mph 27.6 mph N/A   Partly Cloudy
4:00 PM 57.2 °F - 37.4 °F 48% 29.98 in 6.2 mi SW 12.7 mph - N/A   Partly Cloudy
5:00 PM 57.2 °F - 37.4 °F 48% 29.95 in 6.2 mi SW 18.4 mph 29.9 mph N/A   Partly Cloudy
5:30 PM 57.2 °F - 37.4 °F 48% 29.95 in 6.2 mi SW 15.0 mph - N/A   Partly Cloudy
6:00 PM 57.2 °F - 37.4 °F 48% 29.95 in 6.2 mi SW 13.8 mph 25.3 mph N/A   Partly Cloudy
6:30 PM 55.4 °F - 39.2 °F 54% 29.95 in 6.2 mi SW 11.5 mph - N/A Rain Light Rain
7:00 PM 53.6 °F - 41.0 °F 62% 29.95 in 6.2 mi SSW 13.8 mph 27.6 mph N/A Rain Light Rain
7:30 PM 53.6 °F - 41.0 °F 62% 29.95 in 6.2 mi South 8.1 mph - N/A Rain Light Rain
8:00 PM 53.6 °F - 41.0 °F 62% 29.95 in 6.2 mi Variable 6.9 mph - N/A   Partly Cloudy
8:30 PM 53.6 °F - 41.0 °F 62% 29.95 in 6.2 mi SW 9.2 mph - N/A Rain Light Rain
9:00 PM 51.8 °F - 41.0 °F 67% 29.95 in 6.2 mi SW 11.5 mph - N/A Rain Light Rain
9:30 PM 51.8 °F - 42.8 °F 71% 29.95 in 6.2 mi SSW 13.8 mph - N/A Rain Light Rain
10:00 PM 50.0 °F - 42.8 °F 76% 29.95 in 6.2 mi South 10.4 mph - N/A Rain Light Rain
10:30 PM 51.8 °F - 41.0 °F 67% 29.95 in 6.2 mi Variable 2.3 mph - N/A Rain Light Rain
11:00 PM 50.0 °F - 41.0 °F 71% 29.95 in 6.2 mi SSE 8.1 mph - N/A Rain Light Rain
11:30 PM 50.0 °F - 41.0 °F 71% 29.95 in 6.2 mi SSE 6.9 mph - N/A Rain Light Rain